Regional Weather Roundup
Issued by NWS

Home | Current Version | Previous Version | Text Only | Print | Product List | Glossary Off
Versions: 1 2 3 4 5 6 7 8 9 10 11 12 13 14 15 16 17 18 19 20 21 22 23 24 25 26 27 28 29 30 31 32 33 34 35 36 37 38 39 40 41 42 43 44 45 46 47 48 49 50

000
ASUS43 KFSD 120402
RWRSD

WEATHER ROUNDUP FOR SOUTH DAKOTA
NATIONAL WEATHER SERVICE SIOUX FALLS SD
1000 PM CST MON DEC 11 2017

NOTE: "FAIR" INDICATES FEW OR NO CLOUDS BELOW 12,000 FEET WITH NO
SIGNIFICANT WEATHER AND/OR OBSTRUCTIONS TO VISIBILITY.


SDZ001>005-009-010-012>017-120500-
NORTHWEST AND NORTH CENTRAL SOUTH DAKOTA

CITY           SKY/WX    TMP DP  RH WIND       PRES   REMARKS
BUFFALO          N/A     24  21  88 W8        30.29F WCI  15
FAITH            N/A     36  27  69 NW12      30.35S
MOBRIDGE       CLEAR     23  19  85 CALM      30.31F
$$

SDZ012>016-024>037-041>051-057-063-072>074-120500-
SOUTHWEST AND SOUTH CENTRAL SOUTH DAKOTA

CITY           SKY/WX    TMP DP  RH WIND       PRES   REMARKS
RAPID CTY ARPT CLOUDY    22  19  89 CALM      30.39S
PIERRE         MOCLDY    31  28  89 NW6       30.37R WCI  25
CUSTER         CLOUDY    25   2  37 S6        30.33F WCI  18
PHILIP         CLOUDY    37  28  70 NW5       30.39F
PINE RIDGE     CLOUDY    23  20  88 CALM      30.39F
SPEARFISH      FAIR      32  16  51 W8        30.36S WCI  25
WINNER         CLOUDY    36  30  79 N12       30.37S
$$

SDZ004>011-016>023-039-040-120500-
NORTHEAST SOUTH DAKOTA

CITY           SKY/WX    TMP DP  RH WIND       PRES   REMARKS
ABERDEEN       CLOUDY    11   9  92 NW3       30.36F
WATERTOWN      CLEAR     14  12  92 N8        30.31R WCI   3
BROOKINGS      PTCLDY    16  12  84 NW8       30.33R WCI   5
SISSETON         N/A     12   9  87 NW8       30.34S WCI   0
$$

SDZ017-020-022-023-036>040-048>070-120500-
SOUTHEAST SOUTH DAKOTA

CITY           SKY/WX    TMP DP  RH WIND       PRES   REMARKS
SIOUX FALLS    CLEAR     19  15  84 N12       30.34R WCI   7
HURON          CLEAR     14  13  95 W8        30.38R WCI   3
CHAMBERLAIN    CLEAR     25  23  91 CALM      30.38S
MITCHELL       CLEAR     18  15  88 NW7       30.40R WCI   9
YANKTON        CLEAR     21  16  81 NW9       30.39R WCI  11
$$

ABBREVIATIONS USED IN REMARKS
   TC - TEMPERATURE IN CELSIUS
  WCI - WIND CHILL INDEX
   HX - HEAT INDEX
  VSB - VISIBILITY





USA.gov is the U.S. government's official web portal to all federal, state and local government web resources and services.